SBIRS GEO-3 (USA 282)

Last updated on Wed Sep 09 2026 00:03:02 GMT+0000 (Coordinated Universal Time)

1 43162U 18009A 26251.41353301 .00000109 00000+0 00000+0 0 9998 2 43162 2.2522 15.8012 0001814 158.7606 162.3933 1.00272314 31679
UTC large
Height (km)
Speed (km/s)
/
Latitude / Longitude
Inclination (degrees)
Orbital Period (minutes)
Azimuth
Elevation
Range (km)
Doppler Factor

Next 0 passes for location: London (51.5072 / 0.1276)

No passes found over London.
SBIRS GEO-3 (USA 282)